Showing default

QIANFAN-29, 61562

Orbit data source: Space-Track

QIANFAN-29, 61562 is a Chinese payload satellite in LEO that was launched on Tue, 15 Oct 2024 UTC via a CHANG ZHENG 6A launch vehicle from the Taiyaun Space Center, China (TSC). Payload-class satellites include a variety of spacecraft equipped with specific instruments for various scientific and technological missions. These include communications satellites like Starlink; space stations such as the ISS; scientific satellites like the Hubble; Earth observation satellites from companies like Planet Labs, Umbra, and HawkEye 360; GPS; miniature CubeSats for education and research; and military/defense satellites.

Loading next visibility...
Identifier
61562, 2024-185L
Orbit
LEO
Country
Flag of CNCN / PRC
Related business
Manufacturer
GESIH/SECM
Mission
Operational Commercial Communications
Bus & Motor
QIANFAN, Unknown motor
Mass
267 kg wet, ~267 kg dry
Launch date (UTC)
2024-10-15 (1 year ago)
Launch vehicle
CHANG ZHENG 6A
Launch site
Taiyaun Space Center, China (TSC)
Object type
Payload
Rocket body
Debris
Shape & HBR
Box + 1 Pan, 5.0 m
Radar Cross Section
13.200 m², Large (>1 m²)

Expand to show TLE details & history
Last TLE update: 8 hours ago

TLE from 8 hours ago
0 QIANFAN-29
1 61562U 24185L   26072.53865725  .00000227  00000-0  33300-3 0  9991
2 61562  88.9723  71.9073 0011043 138.8060 221.3927 13.51047049 80054
Epoch: 2026-03-13T12:55Z
TLE epoch observation values (Epoch: 2026-03-13T12:55:39.986Z)
Latitude
0.00003°
Longitude
66.81794°
Altitude
1,077.536 km
Speed
7.31 km/s
True Right ascension
04h 47m 37s
True Declination
0° 00' 00"
Sunlit
Object was in daylight at epoch
Visualization orbit readout
Latitude
Unknown
Longitude
Unknown
Altitude
Unknown
Speed
Unknown
Apparent Right ascension
Unknown
Apparent Declination
Unknown
Sunlit
N/A
Visualization observer readout
Local Sidereal Time
01:17:39
Azimuth
Unknown
Elevation
Unknown
Doppler factor
Unknown
Orbital elements
Apogee altitude
1,073.68 km
Perigee altitude
1,057.24 km
Semi-major axis
7,443.597 km
Eccentricity
0.0011
Inclination
88.9723°
RAAN
71.9073°
Arg. of periapsis
138.806°
True anomaly
221.30911°
Mean anomaly
221.3927°
Eccentric anomaly
221.3509°
Mean motion
3.37963 °/min
Orbital period
106.52 mins
BSTAR
0.000333
Loading maneuver chart data...
Computing Atmospheric mass density...
Loading historical data...
Loading historical data...
Loading historical data...
Loading historical data...
Loading historical data...
Loading historical data...
Loading historical data...

Documentation

Showing up to 5 results
|